Regional Weather Roundup
Issued by NWS Sterling, VA

Home | Current Version | Previous Version | Graphics & Text | Print | Product List | Glossary On
Versions: 1 2 3 4 5 6 7 8 9 10 11 12 13 14 15 16 17 18 19 20 21 22 23 24 25 26 27 28 29 30 31 32 33 34 35 36 37 38 39 40 41 42 43 44 45 46 47 48 49 50
000
ASUS41 KLWX 201110
RWRLWX

REGIONAL WEATHER ROUNDUP
NATIONAL WEATHER SERVICE BALTIMORE MD/WASHINGTON DC
700 AM EDT MON OCT 20 2014

Note: "FAIR" indicates few or no clouds below 12,000 feet
with no significant weather and/or obstructions to visibility.
 TC=TEMPERATURE CELSIUS

 * =Non NWS site. Station does not report precipitation (e.g. rain,
    snow, etc.), thunder, or fog.

DCZ001-MDZ009-015-VAZ040>042-051-053>054-201200-
WASHINGTON METRO

CITY           SKY/WX    TMP DP  RH WIND       PRES   REMARKS
WASHINGTON NAT PTCLDY    46  40  79 SW3       30.13R
DULLES         PTCLDY    37  35  92 CALM      30.11S
ANDREWS AFB    PTCLDY    39  38  96 S2        30.11S
FT BELVOIR     PTCLDY    36  35  96 CALM      30.13R
QUANTICO       CLEAR     40  37  89 NW6       30.13S
COLLEGE PARK*  PTCLDY    37  37 100 CALM      30.12S
LEESBURG*      PTCLDY    37  37 100 CALM      30.11S
MANASSAS*      PTCLDY    36  36 100 CALM      30.12F
GAITHERSBURG*  PTCLDY    37  34  87 CALM      30.14S

$$

MDZ006>007-011-014-201200-
BALTIMORE METRO

CITY           SKY/WX    TMP DP  RH WIND       PRES   REMARKS
BWI AIRPORT    MOCLDY    38  35  89 CALM      30.11R
MD SCIENCE CTR   N/A     44  36  73 MISG      30.12R
MARTIN STATE   PTCLDY    39  37  93 CALM      30.13R
ANNAPOLIS      PTCLDY    42  37  82 CALM      30.12S
FORT MEADE*    PTCLDY    34  32  93 CALM      30.14S

$$

MDZ012-015-019>023-201200-
MARYLAND EASTERN SHORE

CITY           SKY/WX    TMP DP  RH WIND       PRES   REMARKS
OCEAN CITY     CLEAR     33  31  92 CALM      30.14R
SALISBURY      CLEAR     35  30  82 E3        30.13S
BAY BRIDGE AP*   N/A     43  41  93 SE3       30.13R
CAMBRIDGE*     CLEAR     37  36  93 CALM      30.13S
EASTON*        CLEAR     39  39 100 CALM      30.16S

$$

MDZ017>025-201200-
SOUTHERN MARYLAND

CITY           SKY/WX    TMP DP  RH WIND       PRES   REMARKS
PATUXENT RIVER PTCLDY    39  37  92 CALM      30.13R
ST INIGOES     PTCLDY    39  35  86 NE5       30.12S
LEONARDTOWN*   NOT AVBL

$$

MDZ003>005-201200-
NORTH CENTRAL MARYLAND

CITY           SKY/WX    TMP DP  RH WIND       PRES   REMARKS
FREDERICK*     CLEAR     39  36  87 CALM      30.14R
HAGERSTOWN APT PTCLDY    42  33  70 CALM      30.08S
WESTMINSTER*   PTCLDY    39  37  93 CALM      30.09S

$$

MDZ501>502-201200-
WESTERN MARYLAND

CITY           SKY/WX    TMP DP  RH WIND       PRES   REMARKS
OAKLAND*       MOCLDY    36 N/A N/A S7        30.03S
CUMBERLAND*    MOCLDY    36  36 100 CALM      30.12S

$$

VAZ025>031-201200-
SHENANDOAH VALLEY

CITY           SKY/WX    TMP DP  RH WIND       PRES   REMARKS
WINCHESTER*    MOCLDY    39  34  81 CALM      30.08S
FRONT ROYAL*   FAIR      36  34  93 CALM      30.08S
LURAY*         FAIR      36  36 100 CALM      30.09S
NEW MARKET*    FAIR      34  33  98 CALM      30.09R
STAUNTON*      PTCLDY    33  31  92 S5        30.10F
WAYNESBORO*    FAIR      33  32  95 CALM      30.09R

$$

WVZ021-048>050-054>055-201200-
EASTERN WEST VIRGINIA PANHANDLE

CITY           SKY/WX    TMP DP  RH WIND       PRES   REMARKS
MARTINSBURG    MOCLDY    35  31  85 CALM      30.09S
PETERSBURG*    MOCLDY   N/A N/A N/A CALM      30.09S

$$

VAZ036>039-050-201200-
CENTRAL FOOTHILLS

CITY           SKY/WX    TMP DP  RH WIND       PRES   REMARKS
CHARLOTTESVILL MOCLDY    37  35  92 W3        30.10S
CULPEPER*      CLEAR     34  34 100 CALM      30.12F
ORANGE*        PTCLDY    37  36  93 CALM      30.13R
GORDONSVILLE*  FAIR      35  34  96 CALM      30.11R
WARRENTON*     FAIR      33  33 100 CALM      30.11S

$$

VAZ055>057-201200-
NORTH AND CENTRAL PIEDMONT

CITY           SKY/WX    TMP DP  RH WIND       PRES   REMARKS
FREDERICKSBRG* PTCLDY    37  37 100 CALM      30.12S
STAFFORD*      PTCLDY    33  33 100 CALM      30.16F

$$

NCZ024-NYZ072-PAZ021-071-VAZ022-071-201200-
OTHER REGIONAL OBSERVATIONS

CITY           SKY/WX    TMP DP  RH WIND       PRES   REMARKS
NEW YORK CITY  PTCLDY    43  29  57 W3        30.12S
PHILADELPHIA   PTCLDY    41  31  67 S7        30.13S
PITTSBURGH     CLOUDY    42  37  82 S6        30.00F
ROANOKE        PTCLDY    40  37  89 CALM      30.12S
RICHMOND       MOCLDY    43  38  82 CALM      30.13S
RALEIGH        PTCLDY    44  40  85 CALM      30.15S

$$

ANZ530>537-201200-
MARINE OBSERVATIONS

STATION/POSITION TIME  TEMP    WIND        PRES
                       AIR SEA DIR/SP/G
                 (UTC) (F)     (DEG/KT/KT) (MB)
THOMAS PT LIGHT  1100   51 63  260/  4/  5 1021.0R
BALT KEY BRIDGE  1100   45     220/  7/  8 1019.4S
COVE POINT       1100   54     140/  8/  9 1020.0S
LEWISETTA        1100   47 61  230/  2/  2 1019.9R
SOLOMONS ISLAND  1100      65                N/A
PINEY POINT      1100          110/  4/  4   N/A

$$



USA.gov is the U.S. government's official web portal to all federal, state and local government web resources and services.